Flag for Ghana Weather past 2 weeks in Kumasi, Ghana

Now
81 °F

Partly sunny.


Feels Like: 85 °F
Forecast: N/A
Wind: 14 mph from South

Location: Accra Airport

Current Time: Jul 26, 2014 at 5:15:17 PM

Latest Report: Jul 26, 2014 at 4:00 PM


Visibility: N/A

Pressure: 29.89 "Hg

Humidity: 79%

Dew point: 73 °F

Location of KumasiLocation

Historic Weather in Kumasi — Graph

°F

Kumasi temperature yesterday

Maximum temperature yesterday: 79 °F (at 11:00 AM)
Minimum temperature yesterday: 73 °F (at 12:00 AM)
Average temperature yesterday: 76 °F

Past Weeks' High & Low Weather Summary

 TemperatureHumidityPressure
High86 °F (Jul 15, 1:00 PM)100% (Jul 12, 6:00 AM)30.07 "Hg (Jul 12, 6:00 AM)
Low72 °F (Jul 16, 5:45 AM)70% (Jul 12, 11:00 AM)29.89 "Hg (Jul 13, 4:00 PM)
Average78 °F87%29.98 "Hg
* Reported Jul 11 5:00 PM — Jul 26 4:00 PM, Kumasi, Weather by CustomWeather, © 2014

Note: Actual official high and low records may vary slightly from our data, if they occured in-between our weather recording intervals... More about our weather records

Advertising

Kumasi weather history for previous 24 hours

 ConditionsComfort  
Time TempWeatherWind HumidityBarometerVisibility
4:00 PM
Jul 26
81 °FPartly sunny.14 mph79%29.89 "HgN/A
12:00 PM81 °FPartly sunny.15 mph74%29.98 "HgN/A
11:00 AM82 °FBroken clouds.10 mph70%29.98 "HgN/A
10:00 AM81 °FBroken clouds.10 mph74%30.01 "HgN/A
9:00 AM79 °FScattered clouds.9 mph79%30.01 "HgN/A
8:00 AM77 °FPassing clouds.9 mph89%30.01 "HgN/A
5:49 AM73 °FClear.5 mph94%29.98 "Hg10 mi
4:53 AM73 °FPassing clouds.7 mph94%29.95 "HgN/A
2:49 AM75 °FPassing clouds.6 mph94%29.95 "HgN/A
2:00 AM75 °FPassing clouds.7 mph94%29.95 "HgN/A
12:00 AM77 °FClear.9 mph89%29.98 "Hg10 mi
9:54 PM
Jul 25
77 °FPassing clouds.9 mph89%30.01 "HgN/A
8:00 PM77 °FPassing clouds.9 mph89%29.98 "HgN/A
7:00 PM77 °FPassing clouds.9 mph89%29.95 "HgN/A
6:00 PM77 °FPartly sunny.10 mph89%29.95 "HgN/A
5:00 PM77 °FMostly cloudy.12 mph89%29.92 "HgN/A
Weather by CustomWeather, © 2014

See weather overviewHow to use our weather pages